Weather History for KBML - February, 2005

Change the Weather History Date:

Sunday, February 6, 2005

  Actual Average Record
Temperature  
Mean Temperature 28 °F -  
Max Temperature 48 °F 26 °F 48 °F (2005)
Min Temperature 8 °F 0 °F -24 °F (2015)
Degree Days  
Heating Degree Days 37    
Moisture  
Dew Point 18 °F    
Average Humidity 77    
Maximum Humidity 96    
Minimum Humidity 39    
Precipitation  
Precipitation 0.00 in - - ()
Sea Level Pressure  
Sea Level Pressure 30.63 in    
Wind  
Wind Speed 0 mph (North)    
Max Wind Speed 5 mph    
Max Gust Speed -    
Visibility 8 miles    
Events      
Averages and records for this station are not official NWS values.
T = Trace of Precipitation, MM = Missing Value Source: NWS Daily Summary

Daily Weather History Graph

Daily Weather History Graph

Search for Another Location

Airport or City:

Trip Planner

Search our weather history database for the weather conditions in past years. The results will help you decide how hot, cold, wet, or windy it might be!

Date:

Astronomy

Feb. 06, 2005 Rise Set
Actual Time 6:57 AM EST 5:01 PM EST
Civil Twilight 6:26 AM EST 5:31 PM EST
Nautical Twilight 5:52 AM EST 6:06 PM EST
Astronomical Twilight 5:18 AM EST 6:40 PM EST
Moon 5:40 AM EST (2/6) 1:54 PM EST (2/6)
Length of Visible Light 11h 05m
Length of Day
10h 03m
Waning Crescent, 7% of the Moon is Illuminated
Feb 6
Waning Crescent
Feb 8
New
Feb 15
First Quarter
Feb 23
Full
Mar 3
Last Quarter

Hourly Weather History & Observations

Time (EST) Temp. Windchill Dew Point Humidity Pressure Visibility Wind Dir Wind Speed Gust Speed Precip Events Conditions
12:52 AM 15.1 °F - 10.9 °F 84% 30.58 in 6.0 mi Calm Calm - N/A   Clear
1:52 AM 16.0 °F - 14.0 °F 92% 30.58 in 5.0 mi Calm Calm - N/A   Clear
2:52 AM 12.9 °F - 10.0 °F 88% 30.60 in 7.0 mi Calm Calm - N/A   Clear
3:52 AM 12.0 °F - 10.0 °F 92% 30.63 in 6.0 mi Calm Calm - N/A   Clear
4:52 AM 12.0 °F - 10.0 °F 92% 30.65 in 8.0 mi Calm Calm - N/A   Clear
5:52 AM 10.0 °F - 8.1 °F 92% 30.66 in 7.0 mi Calm Calm - N/A   Clear
6:52 AM 8.1 °F - 5.0 °F 87% 30.69 in 7.0 mi Calm Calm - N/A   Clear
7:52 AM 10.9 °F - 8.1 °F 88% 30.71 in 6.0 mi Calm Calm - N/A   Clear
8:52 AM 18.0 °F - 14.0 °F 84% 30.72 in 6.0 mi Calm Calm - N/A   Clear
9:52 AM 27.0 °F - 19.9 °F 75% 30.71 in 8.0 mi Calm Calm - N/A   Clear
10:52 AM 34.0 °F - 21.9 °F 61% 30.68 in 10.0 mi Calm Calm - N/A   Clear
11:52 AM 39.9 °F - 23.0 °F 51% 30.64 in 10.0 mi Calm Calm - N/A   Clear
12:52 PM 43.0 °F - 24.1 °F 47% 30.62 in 10.0 mi Calm Calm - N/A   Clear
1:52 PM 46.9 °F - 23.0 °F 39% 30.59 in 10.0 mi Calm Calm - N/A   Clear
2:52 PM 48.0 °F - 24.1 °F 39% 30.60 in 10.0 mi Calm Calm - N/A   Clear
3:52 PM 46.0 °F 43.9 °F 25.0 °F 44% 30.59 in 10.0 mi South 4.6 mph - N/A   Clear
4:52 PM 37.9 °F - 26.1 °F 62% 30.61 in 10.0 mi Calm Calm - N/A   Clear
5:52 PM 28.9 °F - 24.1 °F 82% 30.63 in 10.0 mi Calm Calm - N/A   Clear
6:52 PM 26.1 °F - 23.0 °F 88% 30.63 in 10.0 mi Calm Calm - N/A   Clear
7:52 PM 24.1 °F - 21.9 °F 91% 30.63 in 9.0 mi Calm Calm - N/A   Clear
8:52 PM 24.1 °F - 21.9 °F 91% 30.60 in 9.0 mi Calm Calm - N/A   Clear
9:52 PM 21.9 °F - 19.9 °F 92% 30.58 in 8.0 mi Calm Calm - N/A   Clear
10:52 PM 19.0 °F - 18.0 °F 96% 30.56 in 7.0 mi Calm Calm - N/A   Clear
11:52 PM 18.0 °F - 16.0 °F 92% 30.55 in 7.0 mi Calm Calm - N/A   Clear